TimeCST,TemperatureF,Dew PointF,Humidity,Sea Level PressureIn,VisibilityMPH,Wind Direction,Wind SpeedMPH,Gust SpeedMPH,PrecipitationIn,Events,Conditions,WindDirDegrees,DateUTC
12:55 AM,54.5,49.5,83,30.19,10.0,North,4.6,-,N/A,,Clear,350,2012-11-22 06:55:00
1:55 AM,51.6,46.9,84,30.19,10.0,North,5.8,-,N/A,,Clear,10,2012-11-22 07:55:00
2:55 AM,51.3,47.1,86,30.18,10.0,NE,4.6,-,N/A,,Clear,40,2012-11-22 08:55:00
3:55 AM,49.6,46.4,89,30.18,10.0,NNE,4.6,-,N/A,,Clear,30,2012-11-22 09:55:00
4:55 AM,50.5,46.8,87,30.19,10.0,NNE,4.6,-,N/A,,Clear,20,2012-11-22 10:55:00
5:55 AM,50.4,46.8,87,30.20,10.0,NNE,5.8,-,N/A,,Clear,20,2012-11-22 11:55:00
6:55 AM,49.5,46.6,90,30.22,10.0,NNE,3.5,-,N/A,,Clear,30,2012-11-22 12:55:00
7:55 AM,53.4,49.1,85,30.24,10.0,NNE,5.8,-,N/A,,Clear,20,2012-11-22 13:55:00
8:55 AM,58.6,51.1,76,30.25,10.0,NE,3.5,-,N/A,,Clear,40,2012-11-22 14:55:00
9:55 AM,66.4,52.9,62,30.26,10.0,East,3.5,-,N/A,,Clear,80,2012-11-22 15:55:00
10:55 AM,71.1,52.2,51,30.25,10.0,Calm,Calm,-,N/A,,Clear,0,2012-11-22 16:55:00
11:55 AM,72.7,52.9,50,30.22,10.0,South,5.8,-,N/A,,Clear,180,2012-11-22 17:55:00
12:55 PM,72.7,52.2,48,30.21,10.0,South,8.1,-,N/A,,Clear,190,2012-11-22 18:55:00
1:55 PM,72.1,50.7,47,30.19,10.0,SSW,8.1,-,N/A,,Clear,200,2012-11-22 19:55:00
2:55 PM,71.4,50.4,47,30.19,10.0,SW,9.2,-,N/A,,Clear,220,2012-11-22 20:55:00
3:55 PM,68.2,53.1,58,30.19,10.0,SW,8.1,-,N/A,,Clear,220,2012-11-22 21:55:00
4:55 PM,62.6,53.2,71,30.18,10.0,SSW,8.1,-,N/A,,Clear,210,2012-11-22 22:55:00
5:55 PM,61.0,55.8,83,30.19,10.0,SSW,4.6,-,N/A,,Clear,210,2012-11-22 23:55:00
6:55 PM,61.3,57.7,88,30.20,10.0,Calm,Calm,-,N/A,,Scattered Clouds,0,2012-11-23 00:55:00
7:55 PM,59.5,57.2,92,30.21,10.0,Calm,Calm,-,N/A,,Partly Cloudy,0,2012-11-23 01:55:00
8:55 PM,59.0,56.7,92,30.21,10.0,Calm,Calm,-,N/A,,Mostly Cloudy,0,2012-11-23 02:55:00
9:33 PM,57.2,55.4,94,30.22,3.0,Calm,Calm,-,N/A,,Scattered Clouds,0,2012-11-23 03:33:00
9:34 PM,57.2,55.4,94,30.22,2.5,Calm,Calm,-,N/A,,Scattered Clouds,0,2012-11-23 03:34:00
9:36 PM,57.2,57.2,100,30.22,2.0,Calm,Calm,-,N/A,,Partly Cloudy,0,2012-11-23 03:36:00
9:37 PM,57.2,57.2,100,30.22,1.8,Calm,Calm,-,N/A,,Partly Cloudy,0,2012-11-23 03:37:00
9:40 PM,57.2,57.2,100,30.22,1.5,Calm,Calm,-,N/A,,Partly Cloudy,0,2012-11-23 03:40:00
9:42 PM,57.2,57.2,100,30.22,1.5,Calm,Calm,-,N/A,,Partly Cloudy,0,2012-11-23 03:42:00
9:43 PM,57.2,57.2,100,30.22,1.8,Calm,Calm,-,N/A,,Partly Cloudy,0,2012-11-23 03:43:00
9:45 PM,57.2,57.2,100,30.22,2.0,Calm,Calm,-,N/A,,Partly Cloudy,0,2012-11-23 03:45:00
9:47 PM,57.2,57.2,100,30.22,2.5,Calm,Calm,-,N/A,,Clear,0,2012-11-23 03:47:00
9:49 PM,57.2,57.2,100,30.22,3.0,Calm,Calm,-,N/A,,Clear,0,2012-11-23 03:49:00
9:51 PM,57.2,57.2,100,30.22,3.0,Calm,Calm,-,N/A,,Clear,0,2012-11-23 03:51:00
9:53 PM,57.2,57.2,100,30.22,3.0,Calm,Calm,-,N/A,,Clear,0,2012-11-23 03:53:00
9:55 PM,57.6,57.0,98,30.22,4.0,Calm,Calm,-,N/A,,Clear,0,2012-11-23 03:55:00
10:03 PM,57.2,55.4,94,30.22,2.5,Calm,Calm,-,N/A,,Clear,0,2012-11-23 04:03:00
10:04 PM,57.2,55.4,94,30.22,1.5,Calm,Calm,-,N/A,,Clear,0,2012-11-23 04:04:00
10:05 PM,57.2,55.4,94,30.22,1.0,Calm,Calm,-,N/A,,Clear,0,2012-11-23 04:05:00
10:06 PM,57.2,55.4,94,30.22,0.8,Calm,Calm,-,N/A,,Clear,0,2012-11-23 04:06:00
10:08 PM,57.2,55.4,94,30.22,0.5,Calm,Calm,-,N/A,Fog,Fog,0,2012-11-23 04:08:00
10:10 PM,57.2,55.4,94,30.22,0.2,Calm,Calm,-,N/A,Fog,Fog,0,2012-11-23 04:10:00
10:12 PM,57.2,55.4,94,30.22,0.2,Calm,Calm,-,N/A,Fog,Fog,0,2012-11-23 04:12:00
10:13 PM,57.2,55.4,94,30.22,0.2,Calm,Calm,-,N/A,Fog,Fog,0,2012-11-23 04:13:00
10:14 PM,57.2,55.4,94,30.22,0.2,Calm,Calm,-,N/A,Fog,Fog,0,2012-11-23 04:14:00
10:15 PM,57.2,55.4,94,30.22,0.5,Calm,Calm,-,N/A,Fog,Fog,0,2012-11-23 04:15:00
10:18 PM,57.2,55.4,94,30.22,0.5,Calm,Calm,-,N/A,Fog,Fog,0,2012-11-23 04:18:00
10:19 PM,57.2,55.4,94,30.22,0.8,Calm,Calm,-,N/A,,Clear,0,2012-11-23 04:19:00
10:20 PM,57.2,55.4,94,30.22,1.2,Calm,Calm,-,N/A,,Clear,0,2012-11-23 04:20:00
10:21 PM,57.2,55.4,94,30.22,2.0,Calm,Calm,-,N/A,,Clear,0,2012-11-23 04:21:00
10:22 PM,57.2,55.4,94,30.22,3.0,Calm,Calm,-,N/A,,Clear,0,2012-11-23 04:22:00
10:27 PM,57.2,55.4,94,30.22,2.0,Calm,Calm,-,N/A,,Clear,0,2012-11-23 04:27:00
10:28 PM,57.2,55.4,94,30.22,1.2,Calm,Calm,-,N/A,,Clear,0,2012-11-23 04:28:00
10:29 PM,57.2,55.4,94,30.22,0.8,Calm,Calm,-,N/A,,Clear,0,2012-11-23 04:29:00
10:30 PM,57.2,55.4,94,30.22,0.5,Calm,Calm,-,N/A,Fog,Fog,0,2012-11-23 04:30:00
10:33 PM,57.2,55.4,94,30.22,0.2,Calm,Calm,-,N/A,Fog,Fog,0,2012-11-23 04:33:00
10:35 PM,55.4,55.4,100,30.22,0.2,Calm,Calm,-,N/A,Fog,Fog,0,2012-11-23 04:35:00
10:36 PM,55.4,55.4,100,30.22,0.2,Calm,Calm,-,N/A,Fog,Fog,0,2012-11-23 04:36:00
10:55 PM,55.8,55.2,98,30.22,0.2,Calm,Calm,-,N/A,Fog,Fog,0,2012-11-23 04:55:00
10:56 PM,55.4,55.4,100,30.22,0.2,Calm,Calm,-,N/A,Fog,Fog,0,2012-11-23 04:56:00
10:57 PM,55.4,55.4,100,30.22,0.2,Calm,Calm,-,N/A,Fog,Fog,0,2012-11-23 04:57:00
10:59 PM,55.4,55.4,100,30.22,0.5,Calm,Calm,-,N/A,Fog,Fog,0,2012-11-23 04:59:00
11:00 PM,55.4,55.4,100,30.22,0.8,Calm,Calm,-,N/A,,Clear,0,2012-11-23 05:00:00
11:02 PM,55.4,55.4,100,30.22,1.0,Calm,Calm,-,N/A,,Clear,0,2012-11-23 05:02:00
11:09 PM,55.4,55.4,100,30.22,0.8,Calm,Calm,-,N/A,,Clear,0,2012-11-23 05:09:00
11:11 PM,55.4,55.4,100,30.22,0.5,Calm,Calm,-,N/A,Fog,Fog,0,2012-11-23 05:11:00
11:12 PM,55.4,55.4,100,30.22,0.5,Calm,Calm,-,N/A,Fog,Fog,0,2012-11-23 05:12:00
11:13 PM,55.4,55.4,100,30.22,0.2,Calm,Calm,-,N/A,Fog,Fog,0,2012-11-23 05:13:00
11:17 PM,55.4,53.6,94,30.22,0.2,Calm,Calm,-,N/A,Fog,Fog,0,2012-11-23 05:17:00
11:55 PM,55.2,54.9,99,30.22,0.2,Calm,Calm,-,N/A,Fog,Fog,0,2012-11-23 05:55:00